7 * 24
多渠道服务支持
STARLINK-37202(NORAD编号68731)是SpaceX星链星座中的一颗互联网通信卫星。星链项目旨在构建全球覆盖的低轨卫星互联网,为偏远地区提供高速网络服务。这颗卫星作为星链大规模组网的一员,加入了已突破万颗规模的星座阵营,运行在近地轨道,通过星间和星地链路实现网络信号传输,支撑全球卫星互联网的服务覆盖能力,助力SpaceX推动全球太空互联基础设施建设。
美国
(US)
| 数据来源 | 国际轨道数据 |
| 星历时间: | 2026-05-24T12:00:02+0800 1天前 查看轨道信息 |
| 半长轴: | 6758.888km |
| 偏心率: | 0.0002036 |
| 轨道倾角: | 97.286° |
| 近地点辐角 | 122.111° |
| 升交点赤经 | 7.780° |
| 平近点角 | 179.990° |
| 近地点: | 379.374km |
| 远地点: | 382.128km |
| 周期: | 92.166分钟 |
| 每日圈数: | 15.623918 |